Time,TemperatureF,DewpointF,PressureIn,WindDirection,WindDirectionDegrees,WindSpeedMPH,WindSpeedGustMPH,Humidity,HourlyPrecipIn,Conditions,Clouds,dailyrainin,SolarRadiationWatts/m^2,SoftwareType,DateUTC
2013-08-31 00:01:00,70.0,41.0,-100.00,NW,316,2.0,3.0,35,0.00,,,0.00,1.000000,,2013-08-31 07:01:00,
2013-08-31 00:42:00,69.0,41.0,-100.00,NNW,344,2.0,3.0,36,0.00,,,0.00,1.000000,,2013-08-31 07:42:00,
2013-08-31 00:52:00,69.0,41.0,-100.00,NNW,344,2.0,3.0,36,0.00,,,0.00,1.000000,,2013-08-31 07:52:00,
2013-08-31 01:03:00,69.0,41.0,-100.00,NNW,344,2.0,3.0,36,0.00,,,0.00,1.000000,,2013-08-31 08:03:00,
2013-08-31 01:42:00,69.0,41.0,-100.00,North,4,3.0,4.0,36,0.00,,,0.00,1.000000,,2013-08-31 08:42:00,
2013-08-31 01:52:00,69.0,41.0,-100.00,North,4,3.0,4.0,36,0.00,,,0.00,1.000000,,2013-08-31 08:52:00,
2013-08-31 02:02:00,69.0,41.0,-100.00,North,4,3.0,4.0,36,0.00,,,0.00,1.000000,,2013-08-31 09:02:00,
2013-08-31 02:44:00,69.0,42.0,-100.00,North,358,2.0,4.0,37,0.00,,,0.00,1.000000,,2013-08-31 09:44:00,
2013-08-31 02:53:00,69.0,42.0,-100.00,North,358,2.0,4.0,37,0.00,,,0.00,1.000000,,2013-08-31 09:53:00,
2013-08-31 03:03:00,69.0,42.0,-100.00,North,358,2.0,4.0,37,0.00,,,0.00,1.000000,,2013-08-31 10:03:00,
2013-08-31 03:43:00,67.0,42.0,-100.00,NW,312,2.0,3.0,40,0.00,,,0.00,1.000000,,2013-08-31 10:43:00,
2013-08-31 03:53:00,67.0,42.0,-100.00,NW,312,2.0,3.0,40,0.00,,,0.00,1.000000,,2013-08-31 10:53:00,
2013-08-31 04:02:00,67.0,42.0,-100.00,NW,312,2.0,3.0,40,0.00,,,0.00,1.000000,,2013-08-31 11:02:00,
2013-08-31 04:42:00,67.0,43.0,-100.00,NW,314,2.0,3.0,41,0.00,,,0.00,1.000000,,2013-08-31 11:42:00,
2013-08-31 04:52:00,67.0,43.0,-100.00,NW,314,2.0,3.0,41,0.00,,,0.00,1.000000,,2013-08-31 11:52:00,
2013-08-31 05:02:00,67.0,43.0,-100.00,NW,314,2.0,3.0,41,0.00,,,0.00,1.000000,,2013-08-31 12:02:00,
2013-08-31 05:42:00,66.0,42.0,-100.00,WNW,292,2.0,4.0,42,0.00,,,0.00,1.000000,,2013-08-31 12:42:00,
2013-08-31 05:52:00,66.0,42.0,-100.00,WNW,292,2.0,4.0,42,0.00,,,0.00,1.000000,,2013-08-31 12:52:00,
2013-08-31 06:01:00,66.0,42.0,-100.00,WNW,292,2.0,4.0,42,0.00,,,0.00,1.000000,,2013-08-31 13:01:00,
2013-08-31 06:42:00,66.0,42.0,-100.00,NW,312,2.0,3.0,41,0.00,,,-99.99,1.000000,,2013-08-31 13:42:00,
2013-08-31 06:52:00,66.0,42.0,-100.00,NW,312,2.0,3.0,41,0.00,,,-99.99,1.000000,,2013-08-31 13:52:00,
2013-08-31 07:01:00,66.0,42.0,-100.00,NW,312,2.0,3.0,41,0.00,,,-99.99,1.000000,,2013-08-31 14:01:00,
2013-08-31 07:42:00,67.0,42.0,-100.00,NW,317,2.0,3.0,40,0.00,,,0.00,11.000000,,2013-08-31 14:42:00,
2013-08-31 07:52:00,67.0,42.0,-100.00,NW,317,2.0,3.0,40,0.00,,,0.00,11.000000,,2013-08-31 14:52:00,
2013-08-31 08:01:00,67.0,42.0,-100.00,NW,317,2.0,3.0,40,0.00,,,0.00,11.000000,,2013-08-31 15:01:00,
2013-08-31 09:52:00,79.0,45.0,-100.00,SE,143,2.0,3.0,30,0.00,,,-99.99,381.000000,,2013-08-31 16:52:00,
2013-08-31 10:02:00,79.0,45.0,-100.00,SE,143,2.0,3.0,30,0.00,,,-99.99,381.000000,,2013-08-31 17:02:00,
2013-08-31 10:43:00,82.0,44.0,-100.00,South,186,4.0,6.0,26,0.00,,,0.00,553.000000,,2013-08-31 17:43:00,
2013-08-31 10:53:00,82.0,44.0,-100.00,South,186,4.0,6.0,26,0.00,,,0.00,553.000000,,2013-08-31 17:53:00,
2013-08-31 11:02:00,82.0,44.0,-100.00,South,186,4.0,6.0,26,0.00,,,0.00,553.000000,,2013-08-31 18:02:00,
2013-08-31 11:42:00,86.0,44.0,-100.00,SSW,195,4.0,8.0,23,0.00,,,0.00,610.000000,,2013-08-31 18:42:00,
2013-08-31 11:52:00,86.0,44.0,-100.00,SSW,195,4.0,8.0,23,0.00,,,0.00,610.000000,,2013-08-31 18:52:00,
2013-08-31 12:01:00,86.0,44.0,-100.00,SSW,195,4.0,8.0,23,0.00,,,0.00,610.000000,,2013-08-31 19:01:00,
2013-08-31 12:42:00,89.0,43.0,-100.00,SSW,195,5.0,10.0,20,0.00,,,0.00,847.000000,,2013-08-31 19:42:00,
2013-08-31 12:52:00,89.0,43.0,-100.00,SSW,195,5.0,10.0,20,0.00,,,0.00,847.000000,,2013-08-31 19:52:00,
2013-08-31 13:02:00,89.0,43.0,-100.00,SSW,195,5.0,10.0,20,0.00,,,0.00,847.000000,,2013-08-31 20:02:00,
2013-08-31 13:42:00,92.0,42.0,-100.00,South,191,4.0,10.0,18,0.00,,,0.00,902.000000,,2013-08-31 20:42:00,
2013-08-31 13:52:00,92.0,42.0,-100.00,South,191,4.0,10.0,18,0.00,,,0.00,902.000000,,2013-08-31 20:52:00,
2013-08-31 14:01:00,92.0,42.0,-100.00,South,191,4.0,10.0,18,0.00,,,0.00,902.000000,,2013-08-31 21:01:00,
2013-08-31 14:44:00,91.0,42.0,-100.00,SSW,196,5.0,11.0,18,0.00,,,0.00,887.000000,,2013-08-31 21:44:00,
2013-08-31 14:54:00,91.0,42.0,-100.00,SSW,196,5.0,11.0,18,0.00,,,0.00,887.000000,,2013-08-31 21:54:00,
2013-08-31 15:04:00,91.0,42.0,-100.00,SSW,196,5.0,11.0,18,0.00,,,0.00,887.000000,,2013-08-31 22:04:00,
2013-08-31 15:43:00,91.0,43.0,-100.00,SSW,194,5.0,11.0,19,0.00,,,0.00,815.000000,,2013-08-31 22:43:00,
2013-08-31 15:53:00,91.0,43.0,-100.00,SSW,194,5.0,11.0,19,0.00,,,0.00,815.000000,,2013-08-31 22:53:00,
2013-08-31 16:03:00,91.0,43.0,-100.00,SSW,194,5.0,11.0,19,0.00,,,0.00,815.000000,,2013-08-31 23:03:00,
2013-08-31 16:42:00,89.0,41.0,-100.00,SSW,193,4.0,12.0,19,0.00,,,0.00,652.000000,,2013-08-31 23:42:00,
2013-08-31 16:52:00,89.0,41.0,-100.00,SSW,193,4.0,12.0,19,0.00,,,0.00,652.000000,,2013-08-31 23:52:00,
2013-08-31 17:01:00,89.0,41.0,-100.00,SSW,193,4.0,12.0,19,0.00,,,0.00,652.000000,,2013-09-01 00:01:00,
2013-08-31 17:42:00,87.0,42.0,-100.00,SSW,200,4.0,10.0,21,0.00,,,0.00,375.000000,,2013-09-01 00:42:00,
2013-08-31 17:52:00,87.0,42.0,-100.00,SSW,200,4.0,10.0,21,0.00,,,0.00,375.000000,,2013-09-01 00:52:00,
2013-08-31 18:02:00,87.0,42.0,-100.00,SSW,200,4.0,10.0,21,0.00,,,0.00,375.000000,,2013-09-01 01:02:00,
2013-08-31 18:42:00,83.0,44.0,-100.00,SW,216,3.0,9.0,25,0.00,,,0.00,180.000000,,2013-09-01 01:42:00,
2013-08-31 18:52:00,83.0,44.0,-100.00,SW,216,3.0,9.0,25,0.00,,,0.00,180.000000,,2013-09-01 01:52:00,
2013-08-31 19:02:00,83.0,44.0,-100.00,SW,216,3.0,9.0,25,0.00,,,0.00,180.000000,,2013-09-01 02:02:00,
2013-08-31 19:43:00,77.0,45.0,-100.00,NW,324,2.0,6.0,32,0.00,,,-99.99,17.000000,,2013-09-01 02:43:00,
2013-08-31 19:53:00,77.0,45.0,-100.00,NW,324,2.0,6.0,32,0.00,,,-99.99,17.000000,,2013-09-01 02:53:00,
2013-08-31 20:02:00,77.0,45.0,-100.00,NW,324,2.0,6.0,32,0.00,,,-99.99,17.000000,,2013-09-01 03:02:00,
2013-08-31 20:44:00,73.0,44.0,-100.00,NNW,335,3.0,4.0,35,0.00,,,0.00,5.000000,,2013-09-01 03:44:00,
2013-08-31 20:54:00,73.0,44.0,-100.00,NNW,335,3.0,4.0,35,0.00,,,0.00,5.000000,,2013-09-01 03:54:00,
2013-08-31 21:03:00,-999.0,-99.9,-100.00,NNW,335,3.0,4.0,-999,-99.99,,,-99.99,5.000000,,2013-09-01 04:03:00,
2013-08-31 21:43:00,72.0,43.0,-100.00,NW,309,3.0,4.0,35,0.00,,,0.00,1.000000,,2013-09-01 04:43:00,
2013-08-31 21:54:00,72.0,43.0,-100.00,NW,309,3.0,4.0,35,0.00,,,0.00,1.000000,,2013-09-01 04:54:00,
2013-08-31 22:03:00,72.0,43.0,-100.00,NW,309,3.0,4.0,35,0.00,,,0.00,1.000000,,2013-09-01 05:03:00,
2013-08-31 22:43:00,70.0,43.0,-100.00,WNW,303,3.0,3.0,38,0.00,,,0.00,1.000000,,2013-09-01 05:43:00,
2013-08-31 22:52:00,70.0,43.0,-100.00,WNW,303,3.0,3.0,38,0.00,,,0.00,1.000000,,2013-09-01 05:52:00,
2013-08-31 23:02:00,70.0,43.0,-100.00,WNW,303,3.0,3.0,38,0.00,,,0.00,1.000000,,2013-09-01 06:02:00,
2013-08-31 23:42:00,69.0,44.0,-100.00,NW,311,3.0,4.0,40,0.00,,,0.00,1.000000,,2013-09-01 06:42:00,
2013-08-31 23:52:00,69.0,44.0,-100.00,NW,311,3.0,4.0,40,0.00,,,0.00,1.000000,,2013-09-01 06:52:00,